Date String (YYYY-MM-DD hh:mm:ss) UTC,Instrument flags,absolute air pressure of the measurement (hPa),sample flow rate (lpm),inlet stack bypass flow (lpm),air temperature of the measurement (°C),ambient temperature measured by the external sensor (°C),aerosol sample conditioner tube jacket temperature (°C),OPC LED temperature (°C),internal box temperature (°C),relative humidity of the measurement (%),span deviation,mass concentration of particles derived from Lorenz-Mie calculation of OPC scattering (μg/m³),mass concentration of particles derived from Lorenz-Mie calculation of OPC scattering (μg/m³),mass concentration of particles derived from Lorenz-Mie calculation of OPC scattering (μg/m³)
DateTimeUTC,F1_M11,P_M11,Q1_M11,Q2_M11,T1_M11,T2_M11,T3_M11,T4_M11,T5_M11,U1_M11,ZSPAN_M11,X0_M11,X2_M11,X1_M11
2024-02-22 11:00:00,SystemResetWarning,0827.9,5.00,000.00,020.3,019.7,000.0,028.8,022.1,22.8,0000.0,0005.29,0001.54,0001.18
2024-02-22 11:01:00,SystemResetWarning,0827.8,5.00,000.00,020.3,019.7,000.0,028.8,022.1,22.8,0000.0,0004.36,0001.53,0001.19
2024-02-22 11:02:00,SystemResetWarning,0827.9,5.00,000.00,020.3,019.7,000.0,028.8,022.1,22.8,0000.0,0003.46,0001.48,0001.19
2024-02-22 11:03:00,SystemResetWarning,0828.0,5.01,000.00,020.3,019.7,000.0,028.8,022.1,22.8,0000.0,0003.57,0001.53,0001.20
2024-02-22 11:04:00,SystemResetWarning,0828.1,5.01,000.00,020.3,019.8,000.0,028.8,022.2,22.8,0000.0,0003.69,0001.57,0001.21
2024-02-22 11:05:00,SystemResetWarning,0828.1,4.99,000.00,020.3,019.8,000.0,028.8,022.2,22.7,0000.0,0004.40,0001.63,0001.22
2024-02-22 11:06:00,SystemResetWarning,0828.1,5.00,000.00,020.3,019.8,000.0,028.8,022.2,22.7,0000.0,0004.78,0001.70,0001.23
2024-02-22 11:07:00,SystemResetWarning,0828.1,4.99,000.00,020.3,019.8,000.0,028.8,022.2,22.7,0000.0,0004.59,0001.71,0001.24
2024-02-22 11:08:00,SystemResetWarning,0828.1,5.01,000.00,020.3,019.8,000.0,028.8,022.2,22.7,0000.0,0004.67,0001.71,0001.23
2024-02-22 11:09:00,SystemResetWarning,0828.1,5.01,000.00,020.3,019.8,000.0,028.8,022.2,22.6,0000.0,0005.58,0001.77,0001.24
2024-02-22 11:10:00,SystemResetWarning,0828.2,4.99,000.00,020.3,019.8,000.0,028.8,022.2,22.6,0000.0,0005.71,0001.79,0001.25
2024-02-22 11:11:00,SystemResetWarning,0828.2,4.99,000.00,020.3,019.8,000.0,028.8,022.2,22.7,0000.0,0005.53,0001.77,0001.26
2024-02-22 11:12:00,SystemResetWarning,0828.2,4.99,000.00,020.3,019.8,000.0,028.8,022.2,22.9,0000.0,0005.46,0001.75,0001.25
2024-02-22 11:13:00,SystemResetWarning,0828.2,5.00,000.00,020.3,019.8,000.0,028.8,022.2,23.0,0000.0,0005.44,0001.74,0001.24
2024-02-22 11:14:00,SystemResetWarning,0828.3,5.00,000.00,020.3,019.8,000.0,028.8,022.2,23.0,0000.0,0005.36,0001.71,0001.24
2024-02-22 11:15:00,SystemResetWarning,0828.2,5.01,000.00,020.3,019.8,000.0,028.8,022.2,23.1,0000.0,0005.26,0001.68,0001.24
2024-02-22 11:16:00,SystemResetWarning,0828.2,5.01,000.00,020.4,019.8,000.0,028.8,022.2,23.1,0000.0,0004.54,0001.62,0001.23
2024-02-22 11:17:00,SystemResetWarning,0828.2,5.01,000.00,020.4,019.8,000.0,028.8,022.2,23.1,0000.0,0004.13,0001.59,0001.24
2024-02-22 11:18:00,SystemResetWarning,0828.2,5.00,000.00,020.4,019.8,000.0,028.8,022.3,23.1,0000.0,0004.14,0001.62,0001.24
2024-02-22 11:19:00,SystemResetWarning,0828.2,5.00,000.00,020.4,019.8,000.0,028.9,022.3,23.1,0000.0,0003.87,0001.64,0001.26
2024-02-22 11:20:00,SystemResetWarning,0828.2,5.00,000.00,020.4,019.9,000.0,028.8,022.3,23.1,0000.0,0002.92,0001.62,0001.26
2024-02-22 11:21:00,SystemResetWarning,0828.2,4.99,000.00,020.4,019.9,000.0,028.8,022.3,23.0,0000.0,0002.82,0001.60,0001.26
2024-02-22 11:22:00,SystemResetWarning,0828.2,5.00,000.00,020.4,019.9,000.0,028.9,022.3,22.9,0000.0,0002.89,0001.63,0001.26
2024-02-22 11:23:00,SystemResetWarning,0828.2,5.00,000.00,020.4,019.9,000.0,028.9,022.3,22.9,0000.0,0003.00,0001.68,0001.28
2024-02-22 11:24:00,SystemResetWarning,0828.2,4.99,000.00,020.4,019.9,000.0,028.9,022.3,23.0,0000.0,0003.06,0001.70,0001.29
2024-02-22 11:25:00,SystemResetWarning,0828.2,5.00,000.00,020.4,019.9,000.0,028.9,022.3,23.0,0000.0,0003.18,0001.70,0001.29
2024-02-22 11:26:00,SystemResetWarning,0828.2,5.00,000.00,020.4,019.9,000.0,028.9,022.3,22.9,0000.0,0003.52,0001.72,0001.28
2024-02-22 11:27:00,SystemResetWarning,0828.2,5.01,000.00,020.4,019.9,000.0,028.9,022.3,23.0,0000.0,0003.53,0001.72,0001.28
2024-02-22 11:28:00,SystemResetWarning,0828.3,5.00,000.00,020.4,019.9,000.0,028.9,022.3,22.9,0000.0,0003.48,0001.69,0001.27
2024-02-22 11:29:00,SystemResetWarning,0828.3,5.01,000.00,020.4,019.9,000.0,028.9,022.3,22.9,0000.0,0003.38,0001.63,0001.27
2024-02-22 11:30:00,SystemResetWarning,0828.3,5.00,000.00,020.4,019.9,000.0,028.9,022.3,22.9,0000.0,0003.46,0001.61,0001.26
2024-02-22 11:31:00,SystemResetWarning,0828.3,4.99,000.00,020.4,019.9,000.0,028.9,022.3,22.9,0000.0,0003.18,0001.59,0001.26
2024-02-22 11:32:00,SystemResetWarning,0828.2,5.00,000.00,020.4,019.9,000.0,028.9,022.3,22.9,0000.0,0002.98,0001.57,0001.25
2024-02-22 11:33:00,SystemResetWarning,0828.2,5.00,000.00,020.4,019.9,000.0,028.9,022.3,23.1,0000.0,0002.97,0001.56,0001.26
2024-02-22 11:34:00,SystemResetWarning,0828.2,5.00,000.00,020.4,019.9,000.0,028.9,022.3,23.1,0000.0,0002.89,0001.52,0001.26
2024-02-22 11:35:00,SystemResetWarning,0828.2,5.00,000.00,020.4,019.9,000.0,028.9,022.3,23.1,0000.0,0002.79,0001.50,0001.26
2024-02-22 11:36:00,SystemResetWarning,0828.2,5.00,000.00,020.4,019.9,000.0,028.9,022.3,23.1,0000.0,0002.78,0001.53,0001.26
2024-02-22 11:37:00,SystemResetWarning,0828.2,5.01,000.00,020.4,019.9,000.0,028.9,022.3,23.1,0000.0,0002.39,0001.53,0001.28
2024-02-22 11:38:00,SystemResetWarning,0828.3,5.00,000.00,020.4,019.9,000.0,028.9,022.3,23.1,0000.0,0002.41,0001.53,0001.28
2024-02-22 11:39:00,SystemResetWarning,0828.3,4.99,000.00,020.4,019.9,000.0,028.9,022.3,23.2,0000.0,0002.50,0001.57,0001.29
2024-02-22 11:40:00,SystemResetWarning,0828.4,4.99,000.00,020.4,019.9,000.0,028.9,022.3,23.3,0000.0,0002.50,0001.58,0001.29
2024-02-22 11:41:00,SystemResetWarning,0828.3,4.99,000.00,020.4,019.9,000.0,028.9,022.3,23.3,0000.0,0003.06,0001.56,0001.30
2024-02-22 11:42:00,SystemResetWarning,0828.3,5.00,000.00,020.4,019.9,000.0,028.9,022.2,23.4,0000.0,0003.49,0001.56,0001.31
2024-02-22 11:43:00,SystemResetWarning,0828.3,5.00,000.00,020.4,019.9,000.0,028.9,022.2,23.4,0000.0,0003.52,0001.60,0001.33
2024-02-22 11:44:00,SystemResetWarning,0828.3,5.01,000.00,020.4,019.9,000.0,028.9,022.2,23.4,0000.0,0003.66,0001.65,0001.34
2024-02-22 11:45:00,SystemResetWarning,0828.3,5.01,000.00,020.4,019.9,000.0,028.9,022.2,23.4,0000.0,0003.70,0001.67,0001.34
2024-02-22 11:46:00,SystemResetWarning,0828.4,5.00,000.00,020.4,019.9,000.0,028.9,022.2,23.4,0000.0,0003.84,0001.70,0001.35
2024-02-22 11:47:00,SystemResetWarning,0828.4,4.99,000.00,020.4,019.9,000.0,028.9,022.2,23.4,0000.0,0003.94,0001.69,0001.36
2024-02-22 11:48:00,SystemResetWarning,0828.4,4.99,000.00,020.4,019.9,000.0,028.9,022.3,23.4,0000.0,0004.23,0001.75,0001.37
2024-02-22 11:49:00,SystemResetWarning,0828.3,5.00,000.00,020.4,019.8,000.0,028.9,022.3,23.4,0000.0,0004.25,0001.76,0001.39
2024-02-22 11:50:00,SystemResetWarning,0828.4,5.01,000.00,020.4,019.9,000.0,028.9,022.3,23.4,0000.0,0004.49,0001.78,0001.41
2024-02-22 11:51:00,SystemResetWarning,0828.4,5.01,000.00,020.4,019.9,000.0,028.9,022.3,23.4,0000.0,0004.57,0001.82,0001.42
2024-02-22 11:52:00,SystemResetWarning,0828.4,4.99,000.00,020.4,019.8,000.0,028.9,022.2,23.3,0000.0,0004.12,0001.87,0001.43
2024-02-22 11:53:00,SystemResetWarning,0828.4,5.00,000.00,020.4,019.8,000.0,028.9,022.2,23.3,0000.0,0004.09,0001.93,0001.45
2024-02-22 11:54:00,SystemResetWarning,0828.4,5.00,000.00,020.4,019.8,000.0,028.9,022.2,23.2,0000.0,0005.29,0001.96,0001.46
2024-02-22 11:55:00,SystemResetWarning,0828.4,4.99,000.00,020.4,019.8,000.0,028.9,022.2,23.3,0000.0,0006.03,0001.99,0001.48
2024-02-22 11:56:00,SystemResetWarning,0828.4,5.01,000.00,020.4,019.9,000.0,028.9,022.2,23.3,0000.0,0006.18,0002.02,0001.49
2024-02-22 11:57:00,SystemResetWarning,0828.4,5.01,000.00,020.4,019.9,000.0,028.9,022.2,23.2,0000.0,0006.32,0002.06,0001.50
2024-02-22 11:58:00,SystemResetWarning,0828.4,4.99,000.00,020.4,019.9,000.0,028.9,022.2,23.2,0000.0,0006.51,0002.13,0001.51
2024-02-22 11:59:00,SystemResetWarning,0828.4,4.99,000.00,020.4,019.9,000.0,028.9,022.2,23.2,0000.0,0006.52,0002.13,0001.50
